Location: Bermeries
(50.2863°N, 3.7551°E)
Time: 20:09:00
(UTC+00:00)

Lacrosse 5 rocket - Pass Details

Date: 23 May 2024
Orbit: 446 x 572 km, 57.0° (Epoch: 14 June)

Event Time Altitude Azimuth Distance (km) Brightness Sun altitude
Rises 02:58:01 0° 292° (WNW) 2,706 4.6 -6.9°
Reaches altitude 10° 03:01:14 10° 266° (W) 1,779 3.5 -6.5°
Maximum altitude 03:03:12 13° 236° (WSW) 1,549 3.0 -6.3°
Drops below altitude 10° 03:05:09 10° 206° (SSW) 1,733 3.3 -6.1°
Sets 03:08:13 0° 179° (S) 2,579 4.3 -5.7°
